sat.trackr.live / text

‹ back to catalog

MDQUBESAT-2

NORAD 58665 · 2023-185P

PAYLOAD ACTIVE UNKNOWN

§ Identity

Operator
Country
ARGN
Launch date
2023-12-01
Launch site
AFWTR
Launch vehicle
Mass (kg)
RCS (m²)

External: N2YO · Heavens-Above · Gunter

§ Orbital elements

Epoch: 2026-06-03T01:54:26.589024Z

Period
88.91 min
Inclination
97.5153°
Eccentricity
0.0017018
Mean motion
16.19579607 rev/d
Perigee alt
209.5 km
Apogee alt
231.9 km
Semi-major
6,598.8 km
B*
1.8993e-3
RAAN
248.4694°
Arg perigee
272.7618°
Mean anomaly
87.1722°
Rev number
13,572

§ Raw data

MDQUBESAT-21 58665U 23185P   26154.07947441  .03555560  25061-5  18993-2 0  99932 58665  97.5153 248.4694 0017018 272.7618  87.1722 16.19579607135725

JSON: /api/v1/satellites/58665 · /tle

For live sub-satellite position, see the globe view (requires WebGL).

§ Visibility from observer

Set your observer location to see the next 7 days of passes ≥ 10°. The values pass through the URL so the page stays shareable.

No JS? Fill the form by hand. The geolocation button needs JavaScript.

§ Radio — SatNOGS DB

ModeDescriptionDownlinkUplink
LoRa Mode U - LoRa (inactive) 436.900 MHz

1 transmitter · refreshed weekly from db.satnogs.org